Tracking 18844 objects as of 21-Nov-2017
HD Live streaming from Space Station
objects crossing your sky now

SJ-11-02

Track SJ-11-02 now!
10-day predictions
SJ-11-02 is classified as:


NORAD ID: 37765
Int'l Code: 2011-039A
Perigee: 689.2 km
Apogee: 704.2 km
Inclination: 98.4 °
Period: 98.6 minutes
Semi major axis: 7067 km
RCS: 2.5354 m2 (large)
Launch date: July 29, 2011
Source: People's Republic of China (PRC)
Launch site: Jiuquan Satellite Launch Center, China (JSC)

SJ-11-02 is a satellite developed by China Space Co., Ltd. under the China Aerospace Science and Technology Corporation, used to conduct scientific experiments in space.
aabbcc
Your satellite tracking list
Your tracking list is empty




NASA's NSSDC Master Catalog

Two Line Element Set (TLE):
1 37765U 11039A   17325.12004208  .00000087  00000-0  27744-4 0  9990
2 37765  98.3947 111.0717 0010603 272.4267  87.5713 14.61109137336622
Source of the keplerian elements: AFSPC